TimeAKDT,TemperatureF,Dew PointF,Humidity,Sea Level PressureIn,VisibilityMPH,Wind Direction,Wind SpeedMPH,Gust SpeedMPH,PrecipitationIn,Events,Conditions,WindDirDegrees,DateUTC
12:16 AM,55.4,53.6,94,30.13,7.0,Calm,Calm,-,0.04,,Overcast,0,2013-07-25 08:16:00
12:36 AM,55.4,53.6,94,30.13,1.5,Calm,Calm,-,0.06,,Overcast,0,2013-07-25 08:36:00
12:56 AM,55.4,53.6,94,30.13,0.5,Calm,Calm,-,0.06,,Overcast,0,2013-07-25 08:56:00
1:16 AM,55.4,51.8,88,30.13,0.8,Calm,Calm,-,N/A,,Unknown,0,2013-07-25 09:16:00
1:36 AM,55.4,51.8,88,30.14,0.5,Calm,Calm,-,0.01,,Overcast,0,2013-07-25 09:36:00
1:56 AM,55.4,51.8,88,30.14,0.5,Calm,Calm,-,0.01,,Overcast,0,2013-07-25 09:56:00
2:16 AM,55.4,53.6,94,30.14,3.0,Calm,Calm,-,N/A,,Overcast,0,2013-07-25 10:16:00
2:36 AM,55.4,53.6,94,30.13,4.0,Calm,Calm,-,N/A,,Overcast,0,2013-07-25 10:36:00
2:56 AM,55.4,51.8,88,30.14,0.8,NW,3.5,-,N/A,,Overcast,320,2013-07-25 10:56:00
3:16 AM,55.4,51.8,88,30.14,1.0,NW,4.6,-,N/A,,Overcast,310,2013-07-25 11:16:00
3:36 AM,53.6,51.8,94,30.14,4.0,Calm,Calm,-,0.02,,Overcast,0,2013-07-25 11:36:00
3:56 AM,53.6,51.8,94,30.14,4.0,Calm,Calm,-,0.07,,Mostly Cloudy,0,2013-07-25 11:56:00
4:16 AM,53.6,51.8,94,30.15,2.5,Calm,Calm,-,0.12,,Overcast,0,2013-07-25 12:16:00
4:36 AM,53.6,51.8,94,30.15,5.0,Calm,Calm,-,0.20,,Overcast,0,2013-07-25 12:36:00
4:56 AM,53.6,51.8,94,30.15,2.5,WNW,3.5,-,0.27,,Overcast,300,2013-07-25 12:56:00
5:16 AM,53.6,51.8,94,30.15,0.5,Calm,Calm,-,0.01,,Overcast,0,2013-07-25 13:16:00
5:36 AM,53.6,51.8,94,30.15,2.5,Calm,Calm,-,0.04,,Overcast,0,2013-07-25 13:36:00
5:56 AM,55.4,51.8,88,30.16,5.0,Calm,Calm,-,0.06,,Overcast,0,2013-07-25 13:56:00
6:16 AM,53.6,51.8,94,30.16,5.0,Calm,Calm,-,0.02,,Overcast,0,2013-07-25 14:16:00
6:36 AM,53.6,51.8,94,30.16,5.0,Calm,Calm,-,0.02,,Overcast,0,2013-07-25 14:36:00
6:56 AM,53.6,51.8,94,30.16,5.0,Calm,Calm,-,0.03,,Overcast,0,2013-07-25 14:56:00
7:16 AM,55.4,51.8,88,30.16,4.0,Calm,Calm,-,N/A,,Overcast,0,2013-07-25 15:16:00
7:36 AM,55.4,51.8,88,30.17,7.0,Calm,Calm,-,0.01,,Overcast,0,2013-07-25 15:36:00
7:56 AM,53.6,51.8,94,30.17,7.0,Calm,Calm,-,0.02,,Overcast,0,2013-07-25 15:56:00
8:16 AM,53.6,51.8,94,30.17,7.0,East,5.8,-,N/A,,Overcast,100,2013-07-25 16:16:00
8:36 AM,53.6,51.8,94,30.17,7.0,ESE,4.6,-,0.01,,Overcast,120,2013-07-25 16:36:00
8:56 AM,53.6,51.8,94,30.17,7.0,SE,5.8,-,0.02,,Overcast,130,2013-07-25 16:56:00
9:16 AM,55.4,51.8,88,30.17,7.0,ESE,5.8,-,0.01,,Overcast,120,2013-07-25 17:16:00
9:36 AM,55.4,51.8,88,30.17,7.0,SE,5.8,-,0.01,,Overcast,130,2013-07-25 17:36:00
9:56 AM,55.4,51.8,88,30.18,7.0,SE,5.8,-,0.01,,Overcast,130,2013-07-25 17:56:00
10:16 AM,57.2,51.8,82,30.18,7.0,SE,3.5,-,N/A,,Overcast,140,2013-07-25 18:16:00
10:36 AM,57.2,51.8,82,30.18,7.0,Calm,Calm,-,N/A,,Overcast,0,2013-07-25 18:36:00
10:56 AM,57.2,51.8,82,30.18,7.0,Calm,Calm,-,N/A,,Mostly Cloudy,0,2013-07-25 18:56:00
11:16 AM,57.2,51.8,82,30.18,7.0,Calm,Calm,-,N/A,,Mostly Cloudy,0,2013-07-25 19:16:00
11:36 AM,57.2,51.8,82,30.18,7.0,North,4.6,-,N/A,,Mostly Cloudy,360,2013-07-25 19:36:00
11:56 AM,57.2,53.6,88,30.18,7.0,NE,3.5,-,N/A,,Mostly Cloudy,40,2013-07-25 19:56:00
12:16 PM,57.2,51.8,82,30.18,10.0,East,3.5,-,N/A,,Mostly Cloudy,90,2013-07-25 20:16:00
12:36 PM,59.0,53.6,82,30.18,10.0,NNE,3.5,-,N/A,,Mostly Cloudy,20,2013-07-25 20:36:00
12:56 PM,60.8,53.6,77,30.18,10.0,NNW,4.6,-,N/A,,Mostly Cloudy,330,2013-07-25 20:56:00
1:16 PM,60.8,53.6,77,30.18,10.0,NW,4.6,-,N/A,,Mostly Cloudy,320,2013-07-25 21:16:00
1:36 PM,60.8,53.6,77,30.18,10.0,NW,5.8,-,N/A,,Mostly Cloudy,320,2013-07-25 21:36:00
1:56 PM,60.8,51.8,72,30.18,10.0,West,10.4,-,N/A,,Mostly Cloudy,260,2013-07-25 21:56:00
2:16 PM,60.8,51.8,72,30.19,10.0,West,6.9,-,N/A,,Mostly Cloudy,270,2013-07-25 22:16:00
2:36 PM,60.8,51.8,72,30.19,10.0,WNW,3.5,-,N/A,,Mostly Cloudy,300,2013-07-25 22:36:00
2:56 PM,60.8,51.8,72,30.19,10.0,WNW,5.8,-,N/A,,Mostly Cloudy,300,2013-07-25 22:56:00
3:16 PM,60.8,51.8,72,30.19,10.0,ESE,5.8,-,N/A,,Mostly Cloudy,120,2013-07-25 23:16:00
3:36 PM,60.8,51.8,72,30.19,10.0,Calm,Calm,-,N/A,,Mostly Cloudy,0,2013-07-25 23:36:00
3:56 PM,60.8,51.8,72,30.20,10.0,SSW,4.6,-,N/A,,Overcast,210,2013-07-25 23:56:00
4:16 PM,60.8,51.8,72,30.20,10.0,East,4.6,-,N/A,,Overcast,90,2013-07-26 00:16:00
4:36 PM,59.0,51.8,77,30.19,10.0,ENE,3.5,-,N/A,,Overcast,70,2013-07-26 00:36:00
4:56 PM,59.0,51.8,77,30.19,10.0,Calm,Calm,-,N/A,,Overcast,0,2013-07-26 00:56:00
5:16 PM,59.0,53.6,82,30.19,10.0,East,3.5,-,N/A,,Overcast,80,2013-07-26 01:16:00
5:36 PM,60.8,53.6,77,30.19,10.0,East,3.5,-,N/A,,Overcast,100,2013-07-26 01:36:00
5:56 PM,60.8,53.6,77,30.20,10.0,Calm,Calm,-,N/A,,Partly Cloudy,0,2013-07-26 01:56:00
6:16 PM,60.8,53.6,77,30.20,10.0,Calm,Calm,-,N/A,,Partly Cloudy,0,2013-07-26 02:16:00
6:36 PM,60.8,53.6,77,30.20,10.0,Calm,Calm,-,N/A,,Partly Cloudy,0,2013-07-26 02:36:00
6:56 PM,60.8,53.6,77,30.19,10.0,Calm,Calm,-,N/A,,Scattered Clouds,0,2013-07-26 02:56:00
7:16 PM,59.0,53.6,82,30.20,10.0,NNW,4.6,-,N/A,,Scattered Clouds,330,2013-07-26 03:16:00
7:36 PM,57.2,51.8,82,30.20,10.0,West,5.8,-,N/A,,Scattered Clouds,270,2013-07-26 03:36:00
7:56 PM,57.2,51.8,82,30.20,10.0,WSW,6.9,-,N/A,,Partly Cloudy,240,2013-07-26 03:56:00
8:16 PM,57.2,51.8,82,30.20,10.0,WSW,3.5,-,N/A,,Partly Cloudy,240,2013-07-26 04:16:00
8:36 PM,57.2,51.8,82,30.20,10.0,Calm,Calm,-,N/A,,Partly Cloudy,0,2013-07-26 04:36:00
8:56 PM,55.4,50.0,82,30.21,10.0,Calm,Calm,-,N/A,,Mostly Cloudy,0,2013-07-26 04:56:00
9:16 PM,55.4,50.0,82,30.21,10.0,WSW,3.5,-,N/A,,Mostly Cloudy,240,2013-07-26 05:16:00
9:36 PM,55.4,51.8,88,30.21,10.0,Calm,Calm,-,N/A,,Mostly Cloudy,0,2013-07-26 05:36:00
9:56 PM,55.4,51.8,88,30.21,10.0,SSW,3.5,-,N/A,,Overcast,200,2013-07-26 05:56:00
10:16 PM,55.4,51.8,88,30.21,10.0,Calm,Calm,-,N/A,,Overcast,0,2013-07-26 06:16:00
10:36 PM,55.4,51.8,88,30.21,10.0,Calm,Calm,-,N/A,,Overcast,0,2013-07-26 06:36:00
10:56 PM,55.4,51.8,88,30.21,10.0,Calm,Calm,-,N/A,,Overcast,0,2013-07-26 06:56:00
11:16 PM,55.4,51.8,88,30.22,10.0,Calm,Calm,-,N/A,,Overcast,0,2013-07-26 07:16:00
11:36 PM,53.6,48.2,82,30.22,10.0,WNW,3.5,-,N/A,,Overcast,300,2013-07-26 07:36:00
11:56 PM,53.6,50.0,88,30.22,10.0,Calm,Calm,-,N/A,,Overcast,0,2013-07-26 07:56:00